20050415,183122,1.230,32.957480,-117.306770,15.5400,33.3890,3.0800,98917,4.8,15.988,33.255,41.930,2225.61,0.0,2.747,15.566,15.540, NaN,24.408,   NaN,15.04,1012.84,88.55,15.40,331.1,330.8,2.5,2.6,232.4,232.3,2.1,2.3,66.8, NaN,15.7,242.1,270.8,1113589884,1113589884,1,0.9,066684,066684,266.6,32.957476,-117.306627,0.58,NaN,NaN,15.992, NaN,NaN,NaN, NaN, NaN
20050415,202437,1.408,32.950420,-117.281500,15.4000,33.3700,4.0400,105699,4.9,16.550,33.316,42.534,1777.17,0.0,2.671,15.597,15.551, NaN,24.327,   NaN,15.73,1012.68,85.02,16.04,11.8,17.2,3.7,3.8,236.7,242.2,3.5,3.6,21.7, NaN,15.6,161.6,208.5,1113596667,1113596667,1,0.8,073466,073467,221.5,32.950518,-117.281362,0.53,NaN,NaN,16.554, NaN,NaN,NaN, NaN, NaN
20050415,231548,1.328,33.245680,-117.468140,15.3000,33.4020,6.9200,115991,4.8,16.298,33.349,42.332,1241.66,0.0,7.485,15.711,15.674, NaN,24.410,   NaN,16.30,1011.14,82.05,16.38,343.5,342.8,2.6,2.5,259.1,258.1,2.2,2.1,23.2, NaN,15.2,247.9,274.8,1113606959,1113606959,1,0.7,083758,083759,273.1,33.245630,-117.468015,0.62,NaN,NaN,16.302, NaN,NaN,NaN, NaN, NaN
20050416,025201,20.185,32.899900,-117.401040,13.4000,33.3120,2.5900,128955,5.0,17.019,33.308,42.971, 1.59,0.0,1.859,16.433,16.400, NaN,24.211,   NaN,15.30,1011.19,90.55,15.70,263.8,249.2,0.0,0.6,3.5,100.0,0.5,0.4,NaN, NaN,17.0,184.9,234.2,NaN,1113619922,1,0.2,010321,010322,269.5,32.899871,-117.400890,0.04,NaN,NaN,17.023, NaN,NaN,NaN, NaN, NaN
20050416,060457,20.242,32.840840,-117.547370,15.4400,33.2910,0.7200,140539,4.9,16.496,33.267,42.426, 1.89,0.0,1.444,15.793,15.758, NaN,24.302,   NaN,14.95,1011.89,93.22,15.30,49.5,48.5,0.8,0.7,340.1,344.8,1.0,0.9,NaN, NaN,17.7,210.9,269.5,NaN,1113631507,1,0.6,021907,021907,261.2,32.840830,-117.547263,0.63,NaN,NaN,16.500, NaN,NaN,NaN, NaN, NaN
20050416,095141,1.177,32.676390,-117.874550,16.3400,33.1970,0.2600,154133,4.9,16.938,33.147,42.709, 1.83,0.0,0.821,16.270,16.238, NaN,24.107,   NaN,15.18,1011.42,92.74,15.50,28.9,27.3,1.3,1.3,237.8,235.0,1.4,1.4,NaN, NaN,26.9,279.7,236.3,NaN,1113645101,1,0.6,035501,035501,203.9,32.676493,-117.874458,0.92,NaN,NaN,16.942, NaN,NaN,NaN, NaN, NaN
20050416,140117,9.913,32.513640,-118.214860,15.9000,33.1840,0.2100,169108,5.1,16.527,33.164,42.338,600.90,0.0,0.859,15.857,15.824, NaN,24.215,   NaN,14.31,1012.06,96.01,14.40,336.8,341.7,1.2,1.3,265.8,270.2,1.5,1.6,NaN, NaN,19.3,60.7,46.2,NaN,1113660076,1,0.5,050476,050476,297.9,32.513560,-118.214688,-0.30,NaN,NaN,16.531, NaN,NaN,NaN, NaN, NaN
20050416,181932,1.730,32.344560,-118.554480,15.2400,33.1820,0.2800,184594,4.9,16.035,33.170,41.878,2195.62,0.0,0.651,15.231,15.197, NaN,24.332,   NaN,14.42,1014.10,94.55,14.77,349.6,349.6,3.3,3.2,260.2,260.6,3.3,3.3,NaN, NaN,17.0,348.1,233.5,NaN,1113675561,1,0.0,065961,065961,273.2,32.344532,-118.554331,0.11,NaN,NaN,16.039, NaN,NaN,NaN, NaN, NaN
20050416,221834,1.273,32.179560,-118.893610,15.7700,33.0760,0.6400,198936,4.7,16.352,33.117,42.118,2210.75,0.0,0.840,15.698,15.663, NaN,24.219,   NaN,14.90,1012.98,92.54,15.22,309.6,313.1,4.0,3.9,250.7,254.3,3.8,3.7,NaN, NaN,16.5,249.2,246.8,NaN,1113689904,1,0.7,080304,080304,304.5,32.179472,-118.893486,0.31,NaN,NaN,16.356, NaN,NaN,NaN, NaN, NaN
20050417,023910,10.559,32.011580,-119.236740,14.8100,33.0910,0.4600,214570,4.9,15.420,33.074,41.191, 3.45,0.0,1.954,14.775,14.744, NaN,24.396,   NaN,13.44,1013.46,96.06,13.65,350.7,350.7,6.4,6.4,310.5,310.6,6.3,6.4,NaN, NaN,21.4,72.9,277.6,NaN,1113705537,1,0.6,009537,009537,322.6,32.011485,-119.236655,0.18,NaN,NaN,15.424, NaN,NaN,NaN, NaN, NaN
20050417,064127,2.577,31.851210,-119.590800,15.6100,33.1580,0.1500,229125,5.0,16.168,33.145,41.977, 1.87,0.0,0.595,15.554,15.523, NaN,24.283,   NaN,13.06,1015.23,95.56,13.33,31.1,33.4,6.1,6.3,336.4,338.4,5.8,6.1,NaN, NaN,17.4,259.1,296.7,NaN,1113720093,1,0.9,024093,024093,303.3,31.851165,-119.590715,0.88,NaN,NaN,16.172, NaN,NaN,NaN, NaN, NaN
20050417,125313,14.576,31.520340,-120.261310,15.6200,33.1450,  NaN,251421,4.9,16.159,33.124,41.944, 1.76,0.0,0.633,15.540,15.508, NaN,24.269,   NaN,14.38,1014.56,90.63,14.65,343.4,344.4,8.6,8.4,334.9,335.9,8.4,8.2,NaN, NaN,15.7,5.3,351.7,NaN,1113742388,1,0.8,046388,046388,348.2,31.520193,-120.261297,0.07,NaN,NaN,16.163, NaN,NaN,NaN, NaN, NaN
20050417,200433,2.129,31.205460,-120.973460,14.8400,33.0640,0.3400,277313,4.9,15.453,33.043,41.188,1865.27,0.0,1.048,14.803,14.768, NaN,24.365,   NaN,14.62,1017.30,94.78,15.00,20.3,21.7,10.0,10.9,332.0,333.2,9.9,10.9,NaN, NaN,15.5,215.8,241.7,1113768281,1113768281,1,0.6,072281,072281,307.6,31.205353,-120.973431,0.20,NaN,NaN,15.457, NaN,NaN,NaN, NaN, NaN
20050418,020056,1.680,30.843600,-121.604470,15.3700,33.1400,0.2100,298690,4.8,15.969,33.118,41.757,41.50,0.0,0.821,15.306,15.273, NaN,24.307,   NaN,14.40,1017.01,91.40,14.65,354.7,357.6,11.2,11.2,341.5,344.5,10.9,10.9,NaN, NaN,25.0,308.0,261.4,1113789658,1113789658,1,1.5,007258,007258,335.8,30.843481,-121.604460,0.90,NaN,NaN,15.973, NaN,NaN,NaN, NaN, NaN
20050418,080250,1.305,30.516360,-122.272210,16.3000,33.2730,0.0800,320416,4.6,16.820,33.250,42.715, 2.28,0.0,0.784,16.207,16.174, NaN,24.213,   NaN,13.98,1018.62,74.65,14.22,18.3,19.7,10.1,11.2,345.6,346.7,9.9,11.0,NaN, NaN,18.5,105.4,241.9,1113811385,1113811384,1,1.1,028984,028984,328.4,30.516271,-122.272233,0.57,NaN,NaN,16.824, NaN,NaN,NaN, NaN, NaN
20050418,140844,2.479,30.185340,-122.926120,16.1600,33.2000,0.1000,342351,4.6,16.690,33.178,42.509,30.66,0.0,0.765,16.073,16.041, NaN,24.188,   NaN,14.17,1019.24,74.62,14.47,26.1,27.4,9.8,10.4,344.7,345.6,9.9,10.5,NaN, NaN,18.3,29.6,250.4,1113833320,1113833319,1,0.8,050919,050919,319.2,30.185208,-122.926048,0.45,NaN,NaN,16.694, NaN,NaN,NaN, NaN, NaN
20050418,201053,1.973,29.855920,-123.606110,16.7100,33.4130,0.1300,364079,4.5,17.304,33.383,43.332,1379.51,0.0,0.727,16.641,16.608, NaN,24.202,   NaN,14.59,1021.30,70.73,14.92,11.6,8.7,10.2,10.4,5.8,2.8,10.1,10.2,NaN, NaN,17.8,281.7,290.7,1113855047,1113855047,1,1.9,072646,072647,354.3,29.855783,-123.606131,0.02,NaN,NaN,17.308, NaN,NaN,NaN, NaN, NaN
20050419,022822,2.378,30.428670,-124.001680,16.0800,33.1830,0.0200,386734,4.9,16.652,33.162,42.454,43.04,0.0,0.727,15.997,15.964, NaN,24.185,   NaN,13.98,1019.98,68.87,14.22,5.8,8.9,9.7,10.1,349.4,352.5,9.3,9.6,NaN, NaN,14.2,38.3,331.1,1113877702,1113877701,1,1.3,008901,008901,341.2,30.428540,-124.001662,0.87,NaN,NaN,16.656, NaN,NaN,NaN, NaN, NaN
20050419,090845,2.327,30.756020,-123.334610,15.1800,33.0320,0.1500,410771,4.8,15.733,32.993,41.395, 2.00,0.0,0.765,15.081,15.046, NaN,24.264,   NaN,13.53,1019.15,71.13,13.80,20.5,21.6,13.1,13.9,349.2,350.3,12.7,13.6,NaN, NaN,23.9,69.4,33.4,1113901738,1113901738,1,1.8,032937,032938,322.8,30.755956,-123.334585,0.98,NaN,NaN,15.737, NaN,NaN,NaN, NaN, NaN
20050419,171540,2.260,31.104320,-122.669790,15.7400,33.0980,  NaN,439968,4.7,16.300,33.070,42.016,2473.86,0.0,0.802,15.700,15.666, NaN,24.195,   NaN,13.88,1018.98,66.97,14.22,353.9,358.3,9.9,9.7,327.4,332.0,9.5,9.2,NaN, NaN,22.9,21.6,23.2,1113930936,1113930936,1,1.1,062135,062136,336.9,31.104185,-122.669775,0.84,NaN,NaN,16.304, NaN,NaN,NaN, NaN, NaN
20050419,231710,16.528,31.419760,-122.005950,15.0800,33.0440,0.1600,461663,4.7,15.728,33.019,41.419,987.40,0.0,0.802,15.044,15.007, NaN,24.285,   NaN,14.16,1017.42,77.40,14.52,32.1,32.1,8.7,7.6,338.1,338.6,8.7,7.6,NaN, NaN,15.7,284.8,290.5,1113952631,1113952631,1,0.7,083830,083831,299.7,31.419663,-122.005843,0.54,NaN,NaN,15.732, NaN,NaN,NaN, NaN, NaN
20050420,055721,15.523,31.756710,-121.326540,15.2500,33.1170,0.3600,485670,4.7,15.832,33.107,41.616, 1.93,0.0,0.784,15.177,15.135, NaN,24.329,   NaN,13.66,1018.13,79.77,13.94,27.8,29.1,9.2,9.0,326.9,328.3,8.8,8.6,NaN, NaN,17.6,17.1,302.1,1113976638,1113976638,1,1.0,021438,021438,295.1,31.756640,-121.326388,1.15,NaN,NaN,15.836, NaN,NaN,NaN, NaN, NaN
20050420,121602,1.498,32.086360,-120.642620,15.0400,33.0340,0.1400,508385,4.6,15.589,33.009,41.277, 2.00,0.0,0.765,14.945,14.912, NaN,24.308,   NaN,12.88,1017.19,78.17,13.13,7.3,11.8,8.3,8.6,326.2,330.8,8.1,8.4,NaN, NaN,18.2,280.3,281.7,1113999353,1113999353,1,0.9,044152,044153,317.4,32.086243,-120.642515,0.93,NaN,NaN,15.593, NaN,NaN,NaN, NaN, NaN
20050420,184557,16.098,32.417020,-119.977230,14.9600,33.0590,0.1800,531791,4.6,15.572,33.031,41.287,1617.71,0.0,0.746,14.915,14.881, NaN,24.329,   NaN,13.33,1019.09,81.54,13.68,27.9,32.9,7.0,7.6,332.9,337.7,6.8,7.4,NaN, NaN,12.9,250.5,253.0,1114022759,1114022759,1,0.6,067559,067559,299.4,32.416918,-119.977118,0.62,NaN,NaN,15.576, NaN,NaN,NaN, NaN, NaN
20050421,003022,1.900,32.648440,-119.493090,14.5100,33.0840,1.1200,552466,4.5,15.118,33.022,40.851,1861.00,0.0,1.992,14.453,14.419, NaN,24.422,   NaN,13.26,1016.93,87.10,13.64,31.5,31.9,8.8,9.1,317.2,317.4,8.7,9.1,NaN, NaN,18.3,232.9,241.6,1114043434,1114043434,1,1.2,001833,001834,281.1,32.648340,-119.492978,0.49,NaN,NaN,15.122, NaN,NaN,NaN, NaN, NaN
20050421,062304,0.965,32.911920,-118.943800,13.7600,33.2240,2.8400,573621,3.7,14.414,33.216,40.405, 1.65,0.0,5.125,13.663,13.622, NaN,24.722,   NaN,12.46,1017.30,89.72,12.69,31.2,32.2,6.7,7.1,320.2,320.9,6.9,7.3,NaN, NaN,17.1,192.9,227.9,1114064588,1114064588,1,0.7,022988,022988,291.4,32.911836,-118.943686,0.55,NaN,NaN,14.417, NaN,NaN,NaN, NaN, NaN
20050421,121810,10.628,33.180330,-118.398960,15.3900,33.2280,0.3000,594926,4.3,15.973,33.212,41.867, 1.76,0.0,1.010,15.301,15.270, NaN,24.378,   NaN,13.21,1015.94,91.12,13.48,57.1,63.5,4.6,3.0,294.9,303.0,4.7,3.2,NaN, NaN,18.9,188.8,186.7,1114085893,1114085893,1,0.4,044293,044293,232.2,33.180377,-118.398813,0.36,NaN,NaN,15.977, NaN,NaN,NaN, NaN, NaN
20050421,152045,10.576,33.245690,-118.255040,15.2200,33.2540,0.3600,605879,4.4,15.902,33.240,41.832,1733.98,0.0,1.010,15.209,15.175, NaN,24.416,   NaN,15.63,1017.22,83.41,15.76,262.3,221.0,0.3,1.1,5.9,32.0,0.6,1.3,NaN, NaN,20.6,177.2,172.0,1114096846,1114096846,1,1.0,055246,055246,199.1,33.245783,-118.254947,0.68,NaN,NaN,15.906, NaN,NaN,NaN, NaN, NaN
20050421,192046,1.745,33.412020,-117.902870,15.6900,33.2940,0.3500,620283,4.3,16.666,33.271,42.593,2251.79,0.0,0.765,16.050,16.014, NaN,24.266,   NaN,14.97,1016.27,87.20,15.44,40.3,44.6,5.3,5.0,256.2,260.8,5.4,5.1,NaN, NaN,16.2,168.8,169.8,1114111251,1114111250,1,0.9,069650,069650,210.6,33.412137,-117.902748,0.68,NaN,NaN,16.670, NaN,NaN,NaN, NaN, NaN
20050421,220750,1.261,33.486960,-117.773780,16.7800,33.2890,1.2900,630305,4.4,17.580,33.280,43.476,2211.79,0.0,1.463,16.810,16.770, NaN,24.057,   NaN,16.14,1014.72,84.66,16.56,21.5,20.7,6.1,6.2,301.2,300.3,5.6,5.8,NaN, NaN,14.4,294.0,253.8,1114121273,1114121272,1,0.9,079672,079672,269.0,33.486936,-117.773635,0.90,NaN,NaN,17.584, NaN,NaN,NaN, NaN, NaN
20050422,000338,1.370,33.493130,-117.750200,17.2300,33.3000,3.3200,637236,4.4,17.896,33.269,43.765,1912.37,0.0,4.125,17.181,17.147, NaN,23.972,   NaN,16.29,1014.06,80.84,16.66,37.2,40.5,3.8,3.8,309.1,312.5,3.6,3.6,NaN, NaN,19.8,226.6,234.4,1114128204,1114128203,1,1.3,000203,000203,268.1,33.493115,-117.749951,0.93,NaN,NaN,17.900, NaN,NaN,NaN, NaN, NaN
20050422,023511,1.442,33.670880,-118.096880,15.8500,33.3200,1.9400,646329,4.4,16.576,33.290,42.528,11.96,0.0,3.860,15.821,15.784, NaN,24.301,   NaN,15.07,1013.01,87.00,15.36,3.7,2.8,7.7,7.7,263.4,263.2,7.4,7.4,NaN, NaN,15.9,228.4,300.3,1114137297,1114137296,1,0.6,009296,009296,251.6,33.670908,-118.096670,0.64,NaN,NaN,16.580, NaN,NaN,NaN, NaN, NaN
20050422,055737,1.513,33.884770,-118.442090,15.5500,33.4520,1.4400,658481,4.3,16.353,33.251,42.272, 1.72,0.0,2.954,15.567,15.535, NaN,24.322,   NaN,14.26,1014.67,90.76,14.52,26.3,27.4,1.6,1.5,286.5,288.7,1.6,1.5,NaN, NaN,13.2,188.2,193.8,1114149449,1114149449,1,1.1,021448,021449,244.5,33.884810,-118.441925,0.71,NaN,NaN,16.357, NaN,NaN,NaN, NaN, NaN
20050422,070435,1.404,33.882520,-118.494600,15.4300,33.4100,2.4300,662503,4.3,16.126,33.382,42.205, 1.68,0.0,3.615,15.373,15.336, NaN,24.475,   NaN,14.31,1014.40,87.95,14.59,292.2,285.0,1.8,2.3,185.6,177.4,1.5,2.0,NaN, NaN,20.5,189.8,218.5,1114153471,1114153471,1,0.7,025470,025471,246.1,33.882541,-118.494440,0.39,NaN,NaN,16.130, NaN,NaN,NaN, NaN, NaN
20050422,100056,10.864,33.827540,-118.623730,14.9100,33.4160,1.8700,673096,3.7,15.704,33.397,41.822, 1.92,0.0,3.143,14.869,14.835, NaN,24.581,   NaN,13.64,1012.81,93.50,14.01,333.1,249.9,0.0,1.0,260.4,320.9,0.6,1.2,NaN, NaN,11.2,77.0,104.7,1114164063,1114164063,1,1.0,036062,036063,101.3,33.827618,-118.623811,1.32,NaN,NaN,15.708, NaN,NaN,NaN, NaN, NaN
20050422,144658,2.034,33.651640,-118.968570,14.7000,33.2650,0.4900,690260,4.4,15.358,33.180,41.251,334.05,0.0,1.539,14.645,14.611, NaN,24.491,   NaN,13.10,1014.47,93.77,13.32,30.8,32.1,9.6,10.1,235.5,236.7,9.7,10.2,NaN, NaN,18.0,122.7,265.0,1114181228,1114181228,1,0.0,053227,053228,211.6,33.651716,-118.968451,0.59,NaN,NaN,15.362, NaN,NaN,NaN, NaN, NaN
20050422,190645,4.586,33.479560,-119.329640,12.7000,33.3180,4.0800,705834,4.2,13.465,33.225,39.530,788.91,0.0,9.033,12.671,12.638, NaN,24.925,   NaN,13.24,1016.11,85.91,13.40,35.3,46.0,0.7,0.6,315.4,333.3,0.6,0.7,NaN, NaN,15.4,220.9,233.3,1114196802,1114196802,1,0.8,068801,068802,231.3,33.479618,-119.329492,0.68,NaN,NaN,13.468, NaN,NaN,NaN, NaN, NaN
20050423,022149,10.595,33.875980,-120.136760,12.1900,33.5090,3.9500,731940,4.1,13.099,33.323,39.294,200.04,0.0,6.031,12.302,12.264, NaN,25.074,   NaN,12.82,1015.32,92.65,13.16,317.2,316.0,3.1,3.3,89.0,87.6,3.0,3.1,NaN, NaN,17.2,47.8,72.3,1114222908,1114222908,1,0.6,008507,008508,136.6,33.876105,-120.136825,0.23,NaN,NaN,13.102, NaN,NaN,NaN, NaN, NaN
20050423,054346,10.114,33.749820,-120.401920,13.1800,33.2580,4.2500,744065,4.3,14.158,33.206,40.155, 1.76,0.0,7.598,13.344,13.306, NaN,24.768,   NaN,13.31,1016.18,94.61,13.64,15.7,16.0,4.7,5.0,139.3,139.3,4.7,5.0,NaN, NaN,10.4,47.1,39.5,1114235032,1114235032,1,0.3,020632,020632,117.6,33.749881,-120.402050,0.58,NaN,NaN,14.161, NaN,NaN,NaN, NaN, NaN
20050423,095313,9.957,33.580080,-120.732370,14.0400,33.1480,2.3200,759038,4.2,14.752,33.086,40.579, 1.86,0.0,5.540,13.979,13.947, NaN,24.550,   NaN,13.90,1014.12,89.06,14.21,358.4,2.7,7.3,7.6,139.7,144.0,6.6,7.0,NaN, NaN,13.6,102.2,100.5,1114250006,1114250006,1,1.7,035605,035606,137.9,33.580205,-120.732306,1.04,NaN,NaN,14.756, NaN,NaN,NaN, NaN, NaN
20050423,181909,9.094,33.241880,-121.440960,14.4500,33.1160,1.0200,789375,4.3,15.161,33.049,40.921,783.82,0.0,2.935,14.391,14.357, NaN,24.433,   NaN,14.17,1013.09,98.66,14.34,119.4,127.0,2.6,2.5,301.0,308.2,2.9,2.8,NaN, NaN,17.7,309.4,277.2,1114280343,1114280343,1,0.6,065943,065943,176.9,33.242022,-121.440930,0.12,NaN,NaN,15.165, NaN,NaN,NaN, NaN, NaN
20050423,230753,10.072,32.908210,-122.135680,14.1500,33.1060,1.5300,806720,4.4,14.882,33.051,40.663,721.62,0.0,4.181,14.098,14.062, NaN,24.495,   NaN,13.35,1011.96,90.40,13.59,76.6,88.6,4.7,2.5,326.5,343.1,4.7,2.7,NaN, NaN,8.4,180.8,224.3,1114297687,1114297687,1,1.1,083287,083287,247.3,32.908191,-122.135580,0.46,NaN,NaN,14.886, NaN,NaN,NaN, NaN, NaN
20050424,044045,30.396,32.577260,-122.821670,15.0000,32.9890,0.2000,826674,4.4,15.656,32.916,41.236, 1.78,0.0,0.651,14.912,14.883, NaN,24.222,   NaN,14.28,1013.98,83.96,14.52,26.1,25.9,5.2,5.8,307.7,307.2,5.1,5.6,NaN, NaN,17.0,274.9,289.3,1114317641,1114317641,1,0.5,016841,016841,274.1,32.577235,-122.821501,0.67,NaN,NaN,15.660, NaN,NaN,NaN, NaN, NaN
20050424,101551,16.132,32.238980,-123.504280,15.0100,33.0320,0.1600,846779,4.6,15.663,32.983,41.318, 2.36,0.0,0.595,14.928,14.897, NaN,24.272,   NaN,14.05,1014.77,86.48,14.33,10.8,12.9,8.3,8.6,302.9,305.0,8.2,8.5,NaN, NaN,10.3,210.1,228.6,1114337746,1114337746,1,0.6,036946,036946,289.3,32.238912,-123.504121,0.23,NaN,NaN,15.667, NaN,NaN,NaN, NaN, NaN
20050424,172128,16.897,31.898750,-124.174100,14.9000,32.9500,0.1200,872315,4.4,15.586,32.906,41.159,1180.26,0.0,0.519,14.844,14.809, NaN,24.230,   NaN,14.88,1018.41,76.93,15.21,20.6,22.5,5.2,5.7,295.1,296.8,5.2,5.7,NaN, NaN,15.4,11.2,334.7,1114363282,1114363282,1,0.8,062482,062482,275.0,31.898726,-124.173930,0.48,NaN,NaN,15.590, NaN,NaN,NaN, NaN, NaN
20050424,222147,15.782,31.320700,-123.742470,15.7600,33.0410,0.0900,890349,4.5,16.502,32.999,42.126,1886.70,0.0,0.425,15.732,15.694, NaN,24.095,   NaN,15.45,1019.07,78.07,15.93,49.3,48.8,6.2,5.6,289.8,289.5,6.5,5.9,NaN, NaN,12.9,280.2,223.4,1114381317,1114381317,1,0.5,080517,080517,228.1,31.320722,-123.742300,0.31,NaN,NaN,16.506, NaN,NaN,NaN, NaN, NaN
20050425,042448,14.429,31.662330,-123.083960,15.6400,33.0470,0.1300,912136,4.6,16.319,32.995,41.948, 2.10,0.0,0.500,15.586,15.553, NaN,24.133,   NaN,15.03,1019.08,79.81,15.30,29.6,29.6,5.2,5.4,327.6,327.5,5.1,5.3,NaN, NaN,19.1,224.2,245.2,1114403103,1114403103,1,1.4,015902,015903,297.1,31.662266,-123.083892,0.49,NaN,NaN,16.323, NaN,NaN,NaN, NaN, NaN
20050425,102113,15.454,31.990930,-122.387860,15.8100,33.0640,0.0900,933500,4.5,16.454,33.020,42.104, 1.62,0.0,0.444,15.731,15.700, NaN,24.122,   NaN,14.68,1018.21,84.95,14.93,346.4,346.6,6.3,5.8,302.0,301.9,6.2,5.7,NaN, NaN,17.0,359.6,3.1,1114424468,1114424467,1,1.2,037267,037267,315.6,31.990826,-122.387765,0.53,NaN,NaN,16.458, NaN,NaN,NaN, NaN, NaN
20050425,172531,10.961,32.319240,-121.714540,15.7300,33.1010,0.0800,958976,4.6,16.408,33.059,42.105,853.45,0.0,0.406,15.665,15.634, NaN,24.162,   NaN,14.42,1019.24,82.12,14.72,23.2,25.7,7.6,8.4,310.4,312.7,7.5,8.3,NaN, NaN,18.6,213.8,236.5,1114449944,1114449944,1,1.0,062743,062744,288.0,32.319158,-121.714453,0.80,NaN,NaN,16.412, NaN,NaN,NaN, NaN, NaN
20050425,223040,10.845,32.652040,-121.039110,15.0400,33.0890,0.3100,977281,4.5,15.873,33.060,41.601,2243.38,0.0,0.651,15.058,15.017, NaN,24.284,   NaN,14.52,1017.67,81.44,14.92,29.0,29.7,8.7,8.0,331.4,332.3,8.8,8.0,NaN, NaN,13.5,198.3,233.8,1114468249,1114468249,1,1.0,081048,081049,300.0,32.651931,-121.039025,0.39,NaN,NaN,15.877, NaN,NaN,NaN, NaN, NaN
20050426,045408,15.652,32.985520,-120.369070,15.0000,33.0520,0.1600,1000267,4.6,15.719,33.022,41.414, 1.77,0.0,0.595,14.955,14.923, NaN,24.290,   NaN,14.03,1016.96,83.45,14.34,16.8,17.6,9.9,10.3,311.8,312.5,9.4,9.8,NaN, NaN,16.1,265.1,260.6,1114491234,1114491234,1,1.4,017633,017634,291.0,32.985455,-120.368827,0.86,NaN,NaN,15.723, NaN,NaN,NaN, NaN, NaN
20050426,092254,1.492,33.154360,-120.015530,13.5800,33.1800,2.3000,1016411,4.4,14.287,33.149,40.214, 1.68,0.0,5.748,13.513,13.480, NaN,24.697,   NaN,13.35,1016.15,86.66,13.62,8.1,12.2,10.8,10.8,311.1,315.4,10.4,10.4,NaN, NaN,14.6,241.5,255.6,1114507378,1114507378,1,1.5,033778,033778,302.3,33.154295,-120.015420,0.83,NaN,NaN,14.290, NaN,NaN,NaN, NaN, NaN
20050426,125319,10.532,33.321500,-119.665800,14.1000,33.1110,1.2000,1029044,4.3,14.779,33.075,40.592, 2.46,0.0,3.521,14.022,13.991, NaN,24.536,   NaN,12.59,1015.06,91.93,12.90,13.0,12.8,9.8,10.5,305.1,305.3,9.7,10.3,NaN, NaN,19.3,242.3,211.8,1114520011,1114520011,1,0.7,046411,046411,281.7,33.321400,-119.665648,-0.07,NaN,NaN,14.783, NaN,NaN,NaN, NaN, NaN
20050426,200102,12.307,34.176090,-119.506620,14.2700,33.3400,3.0200,1054700,4.4,15.028,33.149,40.907,2108.86,0.0,3.068,14.585,14.549, NaN,24.539,   NaN,13.90,1015.07,88.73,14.16,76.2,78.7,2.4,1.6,284.1,293.7,2.5,1.8,NaN, NaN,15.7,151.8,160.3,1114545667,1114545667,1,1.1,072067,072067,194.3,34.176323,-119.506561,0.96,NaN,NaN,15.032, NaN,NaN,NaN, NaN, NaN
20050426,222920,5.581,34.228420,-119.407140,14.3180,33.3540,2.8400,1063583,4.4,15.416,33.334,41.477,2105.42,0.0,3.294,14.621,14.583, NaN,24.597,   NaN,14.11,1014.02,91.80,14.57,31.5,34.2,5.1,5.4,280.0,282.6,5.2,5.4,NaN, NaN,15.9,179.1,222.0,1114554551,1114554551,1,0.7,080951,080951,245.1,34.228493,-119.406918,0.52,NaN,NaN,15.420, NaN,NaN,NaN, NaN, NaN
20050427,002303,1.324,34.254740,-119.326240,15.2200,33.0190,7.1000,1070425,4.5,16.084,32.963,41.691,1120.18,0.0,7.711,15.257,15.220, NaN,24.162,   NaN,13.87,1012.71,92.49,14.21,28.0,29.3,7.3,7.8,297.6,298.7,7.3,7.7,NaN, NaN,16.1,208.4,149.8,1114561393,1114561393,1,0.7,001393,001393,259.3,34.254775,-119.326112,-0.19,NaN,NaN,16.088, NaN,NaN,NaN, NaN, NaN
20050427,031915,1.679,34.396880,-119.782960,14.4100,33.3620,5.6900,1080988,4.4,15.150,33.250,41.133, 1.79,0.0,6.654,14.346,14.309, NaN,24.591,   NaN,14.17,1012.72,94.28,14.55,338.7,334.6,3.2,3.2,200.2,196.1,3.1,3.1,NaN, NaN,15.3,159.6,219.1,1114571955,1114571955,1,0.4,011955,011955,210.5,34.397015,-119.782868,0.23,NaN,NaN,15.154, NaN,NaN,NaN, NaN, NaN
20050427,062022,1.783,34.270980,-120.043580,12.7700,33.5920,12.9800,1091851,4.3,13.500,33.546,39.905, 1.84,0.0,15.602,12.700,12.666, NaN,25.166,   NaN,12.90,1013.25,87.11,13.18,7.3,3.9,7.9,8.2,286.6,283.2,7.6,8.0,NaN, NaN,20.1,250.6,285.1,1114582817,1114582817,1,0.7,022817,022817,277.4,34.270922,-120.043295,0.47,NaN,NaN,13.503, NaN,NaN,NaN, NaN, NaN
20050427,101350,1.273,34.457540,-120.494380,11.9700,33.6030,2.5700,1105864,4.3,12.619,33.528,39.062, 1.97,0.0,3.691,12.026,11.996, NaN,25.327,   NaN,11.26,1013.44,89.84,11.66,227.1,218.1,1.7,2.1,130.5,125.0,1.7,2.2,NaN, NaN,17.4,276.4,247.9,1114596832,1114596832,1,1.2,036832,036832,282.1,34.457540,-120.494105,0.73,NaN,NaN,12.622, NaN,NaN,NaN, NaN, NaN
20050427,110617,1.120,34.447720,-120.524100,11.4800,33.5850,6.3500,1109014,4.1,12.299,33.531,38.769, 1.85,0.0,5.333,11.439,11.405, NaN,25.392,   NaN,11.75,1013.73,94.45,12.07,49.2,52.8,3.8,3.4,183.1,187.2,3.6,3.3,NaN, NaN,20.9,60.9,105.6,1114599981,1114599981,1,0.6,039981,039981,126.5,34.447886,-120.524230,0.55,NaN,NaN,12.302, NaN,NaN,NaN, NaN, NaN
20050427,143332,1.511,34.322460,-120.799320,13.1300,33.3180,1.7100,1121438,4.4,13.885,33.260,39.958,1561.25,0.0,7.032,13.109,13.078, NaN,24.866,   NaN,13.08,1014.34,97.58,13.26,88.9,102.2,3.9,1.5,108.9,123.6,4.3,1.8,NaN, NaN,12.4,298.5,288.1,1114612405,1114612405,1,0.5,052405,052405,16.8,34.322290,-120.799323,-0.12,NaN,NaN,13.888, NaN,NaN,NaN, NaN, NaN
20050427,191413,7.042,34.152660,-121.147770,13.9400,33.1630,1.6500,1138271,4.7,14.575,33.081,40.408,1565.08,0.0,2.954,13.880,13.846, NaN,24.584,   NaN,13.31,1014.86,98.29,13.61,67.4,69.2,5.8,3.6,181.6,183.4,6.2,4.0,NaN, NaN,14.5,6.2,339.5,1114629238,1114629238,1,0.5,069238,069238,112.5,34.152605,-121.147962,0.45,NaN,NaN,14.578, NaN,NaN,NaN, NaN, NaN
20050428,020008,1.642,33.801630,-121.831180,14.8700,32.9860,0.2400,1162637,4.8,15.570,32.948,41.192,86.34,0.0,1.048,14.868,14.833, NaN,24.266,   NaN,14.67,1012.64,90.98,14.94,359.8,3.9,6.5,6.9,157.2,161.5,6.1,6.5,NaN, NaN,15.1,109.5,159.6,1114653605,1114653604,1,1.1,007204,007204,159.0,33.801871,-121.831281,0.08,NaN,NaN,15.574, NaN,NaN,NaN, NaN, NaN
20050428,083931,1.421,33.480290,-122.540830,15.2600,32.9810,0.1900,1186614,4.9,15.847,32.925,41.425, 1.82,0.0,0.802,15.190,15.155, NaN,24.186,   NaN,14.22,1011.53,91.84,14.52,56.6,63.7,7.6,5.1,245.9,253.2,7.9,5.5,NaN, NaN,20.2,75.2,88.7,1114677581,1114677581,1,0.7,031180,031181,186.8,33.480431,-122.540850,0.60,NaN,NaN,15.851, NaN,NaN,NaN, NaN, NaN
20050428,172722,15.152,33.144580,-123.231700,15.1000,32.9860,0.1400,1218271,4.6,15.731,32.930,41.322,2096.61,0.0,0.500,15.049,15.012, NaN,24.216,   NaN,14.86,1014.99,80.42,15.17,15.8,18.7,9.5,9.7,275.6,278.5,9.1,9.4,NaN, NaN,13.5,169.2,243.4,1114709239,1114709239,1,0.5,062838,062839,255.0,33.144695,-123.231438,0.85,NaN,NaN,15.735, NaN,NaN,NaN, NaN, NaN
20050428,223506,1.828,32.813180,-123.911960,15.2400,32.9430,  NaN,1236726,4.4,15.914,32.893,41.452,2296.70,0.0,0.500,15.192,15.155, NaN,24.146,   NaN,15.48,1016.71,84.39,15.94,41.4,42.3,8.5,7.9,277.5,278.7,8.4,7.9,NaN, NaN,6.8,241.9,207.2,1114727694,1114727693,1,0.8,081293,081293,226.3,32.813516,-123.911728,0.66,NaN,NaN,15.918, NaN,NaN,NaN, NaN, NaN
20050429,052045,14.420,33.385340,-124.331530,15.1300,32.9560,0.1600,1261091,4.4,15.867,32.905,41.421, 1.76,0.0,0.557,15.053,15.023, NaN,24.166,   NaN,14.15,1019.51,82.04,14.42,64.6,67.4,2.6,2.0,335.8,341.0,2.7,2.1,NaN, NaN,14.5,188.2,212.8,1114752059,1114752059,1,0.9,019258,019259,267.9,33.385358,-124.331310,0.27,NaN,NaN,15.871, NaN,NaN,NaN, NaN, NaN
20050429,112633,1.439,33.720440,-123.638920,15.1800,33.1220,0.2900,1283028,4.1,15.936,33.062,41.664, 1.51,0.0,1.255,15.105,15.073, NaN,24.272,   NaN,14.22,1020.00,79.23,14.51,57.9,61.8,3.2,2.1,337.5,343.7,3.3,2.2,NaN, NaN,24.5,225.4,198.7,1114773996,1114773996,1,0.6,041195,041196,276.4,33.720438,-123.638713,0.44,NaN,NaN,15.940, NaN,NaN,NaN, NaN, NaN